EW2345 Weather Reports


time (UTC)temp
C
wind
direction
speed
KPH
gust
KPH
rain 1hr
cm
rain 24hr
cm
rain mn
cm
humidity
%
barometer
mb
20260504202431 10 333 0.0 4.8 0.05 0.33 0.33 92 1017.5
20260504201931 10 333 0.0 3.2 0.05 0.33 0.33 92 1017.5
20260504200428 10 336 0.0 0.0 0.10 0.30 0.30 91 1017.3
20260504195932 10 336 0.0 0.0 0.10 0.30 0.30 91 1017.3
20260504195430 10 337 1.6 8.0 0.13 0.30 0.30 90 1017.2
20260504194931 10 329 6.4 12.9 0.13 0.30 0.30 90 1017.2
20260504194430 10 256 4.8 8.0 0.13 0.28 0.28 90 1017.1
20260504193930 11 256 8.0 9.7 0.10 0.25 0.25 89 1017.0
20260504193430 11 256 3.2 4.8 0.10 0.25 0.25 89 1017.0
20260504192431 11 256 0.0 0.0 0.10 0.25 0.25 88 1016.8
20260504191931 11 256 0.0 0.0 0.10 0.25 0.25 87 1016.8
20260504191429 11 256 3.2 8.0 0.08 0.23 0.23 87 1016.7
20260504190930 11 256 0.0 4.8 0.05 0.20 0.20 85 1016.7
20260504190431 11 256 1.6 4.8 0.05 0.20 0.20 85 1016.7
20260504185931 12 256 3.2 8.0 0.05 0.20 0.20 85 1016.6
20260504185431 12 256 4.8 4.8 0.03 0.18 0.18 85 1016.6
20260504184931 12 256 1.6 9.7 0.03 0.18 0.18 84 1016.6
20260504184428 12 256 4.8 8.0 0.00 0.15 0.15 84 1016.6
20260504183929 12 256 6.4 9.7 0.00 0.15 0.15 84 1016.5
20260504183430 12 256 8.0 14.5 0.00 0.15 0.15 83 1016.5
20260504182933 12 234 11.3 19.3 0.00 0.15 0.15 83 1016.4
20260504182431 12 239 11.3 16.1 0.00 0.15 0.15 83 1016.4
20260504181930 12 226 9.7 19.3 0.00 0.15 0.15 83 1016.3
20260504180930 12 235 14.5 19.3 0.00 0.15 0.15 83 1016.2
20260504180430 12 235 11.3 19.3 0.00 0.15 0.15 83 1016.2
20260504175932 12 224 12.9 19.3 0.00 0.15 0.15 83 1016.2
20260504175430 12 236 11.3 19.3 0.00 0.15 0.15 83 1016.2
20260504174931 12 238 11.3 19.3 0.00 0.15 0.15 83 1016.2
20260504173931 12 225 12.9 19.3 0.00 0.15 0.15 82 1016.2
20260504173430 12 227 11.3 16.1 0.00 0.15 0.15 82 1016.3
20260504172932 12 230 14.5 20.9 0.00 0.15 0.15 82 1016.3
20260504172430 12 235 11.3 19.3 0.00 0.15 0.15 81 1016.3
20260504171930 13 232 11.3 19.3 0.00 0.15 0.15 82 1016.3
20260504171430 13 225 11.3 16.1 0.00 0.15 0.15 84 1016.3
20260504170929 12 228 11.3 19.3 0.00 0.15 0.15 85 1016.3
20260504170431 12 226 9.7 14.5 0.00 0.15 0.15 83 1016.3
20260504150931 11 246 3.2 8.0 0.10 0.15 0.15 95 1016.8
20260504140930 16 220 9.7 14.5 0.00 0.05 0.05 75 1016.1
20260504140430 15 202 8.0 14.5 0.00 0.05 0.05 75 1016.1
20260504130430 12 228 8.0 11.3 0.03 0.05 0.05 88 1016.8
20260504100430 15 230 8.0 14.5 0.00 0.03 0.03 82 1016.5
20260504081931 11 328 0.0 4.8 0.00 0.03 0.03 94 1016.4
20260504081431 11 328 1.6 4.8 0.00 0.03 0.03 95 1016.5
20260504080930 10 328 0.0 3.2 0.00 0.03 0.03 95 1016.5
20260504080430 10 328 1.6 3.2 0.00 0.03 0.03 96 1016.5
20260504050430 6 328 0.0 0.0 0.00 0.00 0.00 99 1015.6
20260504045932 6 328 0.0 0.0 0.00 0.00 0.00 99 1015.6
20260504044930 6 328 0.0 0.0 0.00 0.00 0.00 99 1015.5
20260504044430 6 328 1.6 4.8 0.00 0.00 0.00 99 1015.6
20260504043931 6 328 3.2 4.8 0.00 0.00 0.00 99 1015.6
20260504043430 6 328 4.8 4.8 0.00 0.00 0.00 99 1015.6
20260504042931 6 328 0.0 0.0 0.00 0.00 0.00 99 1015.6
20260504042430 6 328 1.6 9.7 0.00 0.00 0.00 98 1015.6
20260504041931 6 317 4.8 9.7 0.00 0.00 0.00 98 1015.6
20260504041429 6 242 4.8 8.0 0.00 0.00 0.00 98 1015.4
20260504040930 6 242 0.0 0.0 0.00 0.00 0.00 98 1015.4
20260504040430 6 242 0.0 0.0 0.00 0.00 0.00 99 1015.4
20260504035929 6 242 0.0 0.0 0.00 0.00 0.00 99 1015.4
20260504035430 6 242 1.6 4.8 0.00 0.00 0.00 98 1015.5
20260504034931 6 242 1.6 4.8 0.00 0.00 0.00 98 1015.5
20260504034431 6 242 0.0 4.8 0.00 0.00 0.00 98 1015.5
20260504033930 6 242 3.2 8.0 0.00 0.00 0.00 98 1015.5
20260504033428 6 242 3.2 4.8 0.00 0.00 0.00 98 1015.5
20260504032930 6 242 1.6 4.8 0.00 0.00 0.00 98 1015.5
20260504032430 6 242 0.0 0.0 0.00 0.00 0.00 98 1015.6
20260504031930 6 242 0.0 0.0 0.00 0.00 0.00 98 1015.6
20260504031430 6 242 0.0 1.6 0.00 0.00 0.00 98 1015.6
20260504030930 6 242 1.6 8.0 0.00 0.00 0.00 98 1015.6
20260504030431 6 242 8.0 8.0 0.00 0.00 0.00 98 1015.5
20260504025931 6 242 1.6 4.8 0.00 0.00 0.00 97 1015.6
20260504025431 6 242 0.0 0.0 0.00 0.00 0.00 97 1015.5
20260504024931 6 242 0.0 0.0 0.00 0.00 0.00 97 1015.6
20260504023931 6 242 0.0 0.0 0.00 0.00 0.00 97 1015.5
20260504022931 6 242 0.0 0.0 0.00 0.00 0.00 97 1015.6
20260504022430 6 242 0.0 0.0 0.00 0.00 0.00 97 1015.5
20260504021930 7 242 0.0 3.2 0.00 0.00 0.00 97 1015.5
20260504021430 7 242 0.0 0.0 0.00 0.00 0.00 97 1015.4
20260504020929 7 242 1.6 4.8 0.00 0.00 0.00 97 1015.4
20260504020431 7 242 0.0 3.2 0.00 0.00 0.00 97 1015.4
20260504015931 7 242 0.0 0.0 0.00 0.00 0.00 97 1015.4
20260504015430 7 242 0.0 0.0 0.00 0.00 0.00 96 1015.4
20260504014931 7 242 0.0 0.0 0.00 0.00 0.00 96 1015.4
20260504014428 7 242 0.0 0.0 0.00 0.00 0.00 96 1015.3
20260504013930 7 242 0.0 0.0 0.00 0.00 0.00 96 1015.4
20260504013430 7 242 0.0 0.0 0.00 0.00 0.00 96 1015.4
20260504012931 7 242 0.0 0.0 0.00 0.00 0.00 96 1015.5
20260504012430 7 242 0.0 0.0 0.00 0.00 0.00 96 1015.5
20260504011931 7 242 1.6 3.2 0.00 0.00 0.00 96 1015.5
20260504011431 7 242 1.6 4.8 0.00 0.00 0.00 96 1015.5
20260504010431 7 242 4.8 4.8 0.00 0.00 0.00 95 1015.5
20260504005930 7 242 3.2 3.2 0.00 0.00 0.00 95 1015.5
20260504003930 8 242 0.0 0.0 0.00 0.00 0.00 95 1015.5
20260504003431 8 242 0.0 0.0 0.00 0.00 0.00 95 1015.5
20260504002931 8 242 0.0 0.0 0.00 0.00 0.00 95 1015.6
20260504002431 8 242 0.0 1.6 0.00 0.00 0.00 94 1015.6
20260504001929 8 242 0.0 3.2 0.00 0.00 0.00 94 1015.6
20260504000431 12 242 0.0 0.0 0.00 0.00 0.00 96 1020.0
20260503235932 12 242 0.0 0.0 0.00 0.00 0.00 96 1020.0
20260503235431 12 242 0.0 0.0 0.00 0.00 0.00 96 1020.0
20260503234928 12 242 0.0 0.0 0.00 0.00 0.00 96 1020.0
20260503234431 12 242 0.0 0.0 0.00 0.00 0.00 96 1020.0
20260503233928 12 242 0.0 0.0 0.00 0.00 0.00 96 1020.0
20260503233430 12 242 0.0 0.0 0.00 0.00 0.00 96 1020.0
20260503232932 12 242 0.0 0.0 0.00 0.00 0.00 96 1020.0
20260503232431 12 242 0.0 0.0 0.00 0.00 0.00 96 1020.0
20260503231930 12 242 0.0 0.0 0.00 0.00 0.00 96 1020.0
20260503231430 12 242 0.0 0.0 0.00 0.00 0.00 96 1020.0
20260503230931 12 242 0.0 0.0 0.00 0.00 0.00 96 1020.0
20260503230430 12 242 0.0 0.0 0.00 0.00 0.00 96 1020.0
20260503225431 12 242 0.0 0.0 0.00 0.00 0.00 96 1020.0
20260503224930 12 242 0.0 0.0 0.00 0.00 0.00 96 1020.0
20260503224429 12 242 0.0 0.0 0.00 0.00 0.00 96 1020.0
20260503223931 12 242 0.0 0.0 0.00 0.00 0.00 96 1020.0
20260503223428 12 242 0.0 0.0 0.00 0.00 0.00 96 1020.0
20260503222431 12 242 0.0 0.0 0.00 0.00 0.00 96 1020.0
20260503221931 12 242 0.0 0.0 0.00 0.00 0.00 96 1020.0
20260503221428 12 242 0.0 0.0 0.00 0.00 0.00 96 1020.0
20260503220931 12 242 0.0 0.0 0.00 0.00 0.00 96 1020.0
20260503220430 12 242 0.0 0.0 0.00 0.00 0.00 96 1020.0
20260503215929 12 242 0.0 0.0 0.00 0.00 0.00 96 1020.0
20260503215431 12 242 0.0 0.0 0.00 0.00 0.00 96 1020.0
20260503214931 12 242 0.0 0.0 0.00 0.00 0.00 96 1020.0
20260503214430 12 242 0.0 0.0 0.00 0.00 0.00 96 1020.0
20260503213929 12 242 0.0 0.0 0.00 0.00 0.00 96 1020.0
20260503213428 12 242 0.0 0.0 0.00 0.00 0.00 96 1020.0
20260503212930 12 242 0.0 0.0 0.00 0.00 0.00 96 1020.0
20260503211431 12 242 0.0 0.0 0.00 0.00 0.00 96 1020.0
20260503210931 12 242 0.0 0.0 0.00 0.00 0.00 96 1020.0
20260503210431 12 242 0.0 0.0 0.00 0.00 0.00 96 1020.0
20260503205931 12 242 0.0 0.0 0.00 0.00 0.00 96 1020.0
20260503205430 12 242 0.0 0.0 0.00 0.00 0.00 96 1020.0
20260503204931 12 242 0.0 0.0 0.00 0.00 0.00 96 1020.0
20260503204431 12 242 0.0 0.0 0.00 0.00 0.00 96 1020.0
20260503203931 12 242 0.0 0.0 0.00 0.00 0.00 96 1020.0
20260503203429 12 242 0.0 0.0 0.00 0.00 0.00 96 1020.0